Probability
0 0 0 0 0 0 0 0 0 0 0 0 0 6 10 13 6 19 32 39 45 58 52 65 61 68 77 94 90 90 94 97 90 90 90 90 94 90 87 90 90 90 87 90
0 0 0 0 0 0 0 0 0 0 0 0 3 13 16 23 10 13 32 42 45 58 65 61 68 68 77 94 94 94 94 90 90 90 90 90 94 94 87 87 87 87 84 84
0 0 0 0 0 0 0 0 0 0 0 0 3 6 13 19 19 19 23 32 29 45 61 65 68 74 77 87 90 90 87 90 94 90 90 90 94 90 90 84 87 87 81 81
0 0 0 0 0 0 0 0 0 0 0 0 0 6 19 19 19 26 29 19 23 39 55 71 74 81 84 87 87 84 87 87 90 90 90 90 94 94 94 90 87 84 84 77
0 0 0 0 0 0 0 0 0 0 0 0 0 0 6 23 26 26 26 16 23 29 45 71 81 81 84 84 87 84 87 87 84 84 94 94 94 94 90 90 81 81 84 81
0 0 0 0 0 0 0 0 0 0 0 0 0 0 10 16 23 26 29 26 16 19 42 61 77 87 84 84 87 87 90 87 87 87 87 90 90 90 87 87 87 87 84 81
0 0 0 0 0 0 0 0 0 0 0 0 0 0 10 16 16 29 26 26 19 26 39 61 81 81 84 84 87 87 90 90 90 90 87 90 94 90 87 87 87 87 87 84
0 0 0 0 0 0 0 0 0 0 0 0 0 3 19 16 13 16 26 32 32 29 35 55 71 81 77 84 90 90 90 90 90 90 90 90 94 90 87 87 87 87 87 84
0 0 0 0 0 0 0 0 0 0 0 0 0 19 19 13 13 13 26 26 35 35 35 52 58 74 81 84 90 90 90 90 90 90 90 87 87 90 90 90 90 87 90 87
0 0 0 0 0 0 0 0 0 0 10 0 0 3 16 13 16 19 23 26 29 39 35 52 58 77 81 84 87 90 90 90 90 90 90 87 87 87 84 87 84 84 84 87
0 0 0 0 0 0 0 0 0 0 6 0 0 6 13 23 23 23 26 26 26 32 42 39 61 81 84 81 81 87 87 90 90 90 90 87 84 84 84 84 84 84 84 84
0 0 0 0 0 0 0 0 0 0 16 3 0 6 13 16 23 26 35 35 32 32 45 52 58 74 84 84 84 87 87 90 90 90 90 87 84 84 84 84 84 84 84 84
0 0 0 0 0 0 0 0 0 0 0 0 0 10 19 23 29 26 42 45 52 48 52 65 74 84 81 81 87 90 90 84 87 87 84 84 81 84 84 84 84 81 81 81
0 0 0 0 0 0 0 0 0 0 0 0 6 10 23 23 35 42 48 55 52 65 71 74 81 87 87 87 87 84 84 81 84 84 81 84 81 77 74 74 77 81 81 77
0 0 0 0 0 0 0 0 0 0 0 0 10 13 23 29 42 42 48 48 61 65 68 71 74 77 81 84 81 81 77 77 77 77 77 74 77 77 77 77 74 77 77 77
0 0 0 0 0 0 0 0 0 0 0 3 10 19 26 39 42 42 42 45 48 55 61 68 74 77 74 74 74 77 74 77 74 74 74 74 74 77 77 74 74 74 68 65
0 0 0 0 0 0 0 0 0 0 6 10 10 23 29 39 35 52 42 39 52 58 61 68 71 74 74 74 77 77 71 71 74 74 74 74 74 74 71 65 61 61 68 68
0 13 10 0 0 0 0 3 3 3 6 10 19 29 32 39 35 39 42 55 61 61 65 68 68 65 65 65 68 71 71 71 71 71 71 61 68 65 65 65 65 65 65 65
6 23 0 0 0 0 0 0 0 3 10 16 23 29 26 35 32 42 55 58 65 65 68 58 55 55 61 65 68 65 61 61 61 65 65 68 68 65 61 61 61 65 65 61
0 29 3 0 0 0 0 0 3 0 16 16 19 32 29 39 35 42 61 61 58 61 58 55 52 52 58 68 68 65 61 61 58 58 58 61 61 61 61 65 65 58 55 55
0 10 0 0 0 0 3 3 0 0 16 23 26 39 39 48 42 55 65 65 65 58 52 52 52 52 55 61 61 58 58 55 55 55 61 61 58 58 58 65 58 58 52 48
0 3 6 0 0 3 6 3 13 45 55 39 32 29 35 52 45 52 68 65 55 45 48 52 52 52 48 52 55 55 58 55 55 58 48 45 48 45 39 39 45 45 45 32
0 6 3 19 16 35 23 35 58 52 52 35 29 29 32 45 42 55 55 55 52 45 42 48 45 48 48 52 52 48 52 52 48 45 42 42 39 29 29 39 35 35 39 29
3 16 19 42 26 19 32 35 35 39 29 29 32 32 39 45 45 52 58 52 52 52 48 45 45 42 39 42 42 42 42 45 45 39 35 32 32 29 29 35 29 29 32 29
0 13 23 39 35 29 26 29 29 23 26 26 32 39 26 39 52 52 52 52 48 45 39 42 42 39 39 45 45 39 39 32 32 32 32 32 29 26 23 19 16 16 13 13
10 16 23 32 45 39 42 32 29 39 32 32 29 26 32 35 48 48 48 52 48 45 42 39 42 39 39 42 39 39 39 35 32 35 32 23 23 23 19 13 6 3 3 3
Height
5909 5913 5915 5920 5923 5927 5930 5932 5933 5932 5932 5931 5931 5931 5930 5929 5929 5927 5926 5925 5924 5924 5922 5921 5920 5918 5917 5916 5915 5914 5912 5911 5910 5909 5907 5907 5906 5906 5905 5904 5904 5903 5903 5903
5905 5908 5913 5916 5920 5923 5926 5929 5930 5930 5930 5931 5931 5931 5930 5929 5929 5928 5927 5925 5925 5924 5923 5922 5921 5919 5918 5917 5916 5914 5913 5912 5911 5910 5909 5908 5907 5907 5906 5906 5905 5904 5904 5903
5901 5907 5909 5912 5916 5919 5922 5926 5927 5929 5928 5929 5930 5930 5929 5928 5928 5928 5927 5925 5925 5924 5924 5923 5921 5920 5919 5918 5917 5915 5914 5913 5911 5911 5910 5909 5908 5907 5907 5906 5906 5905 5904 5904
5896 5901 5904 5908 5911 5915 5919 5922 5924 5926 5926 5927 5929 5929 5928 5926 5925 5926 5926 5925 5924 5924 5923 5923 5922 5921 5919 5918 5917 5915 5913 5913 5912 5911 5910 5909 5909 5908 5907 5907 5906 5905 5905 5904
5891 5896 5899 5903 5907 5911 5915 5919 5920 5922 5923 5925 5926 5927 5927 5925 5923 5924 5924 5924 5924 5923 5923 5922 5922 5921 5920 5918 5918 5916 5915 5914 5913 5912 5911 5910 5909 5908 5908 5907 5907 5906 5905 5905
5887 5891 5894 5899 5903 5907 5911 5914 5915 5918 5920 5922 5923 5925 5925 5922 5922 5922 5923 5922 5922 5922 5922 5921 5921 5920 5920 5919 5918 5917 5916 5914 5913 5912 5911 5910 5909 5908 5908 5907 5907 5906 5905 5904
5881 5885 5889 5893 5897 5902 5906 5910 5912 5914 5916 5918 5921 5921 5921 5920 5921 5921 5921 5921 5920 5920 5920 5920 5920 5920 5919 5918 5917 5916 5915 5914 5913 5912 5911 5910 5909 5908 5907 5907 5906 5905 5905 5904
5876 5880 5884 5888 5893 5897 5901 5905 5909 5913 5915 5917 5918 5919 5918 5918 5918 5918 5919 5919 5919 5918 5918 5918 5918 5918 5918 5917 5916 5915 5914 5913 5912 5911 5910 5909 5908 5907 5907 5906 5905 5904 5904 5903
5873 5877 5880 5883 5888 5892 5896 5900 5906 5910 5912 5913 5914 5914 5915 5915 5914 5914 5915 5916 5916 5916 5916 5916 5916 5916 5916 5916 5915 5914 5913 5912 5912 5911 5909 5908 5907 5906 5905 5904 5903 5903 5902 5901
5868 5872 5875 5877 5882 5886 5892 5896 5901 5904 5906 5909 5911 5911 5911 5910 5911 5911 5911 5911 5912 5914 5914 5913 5913 5914 5914 5914 5913 5912 5912 5911 5910 5909 5908 5907 5906 5905 5904 5903 5902 5901 5900 5899
5862 5867 5871 5873 5876 5882 5886 5891 5895 5899 5901 5905 5907 5909 5906 5906 5907 5908 5909 5908 5909 5910 5910 5911 5911 5911 5911 5911 5911 5910 5910 5909 5908 5907 5906 5905 5904 5903 5902 5900 5900 5899 5898 5897
5856 5861 5866 5868 5872 5876 5881 5885 5889 5893 5896 5899 5902 5905 5900 5901 5902 5905 5905 5905 5905 5906 5907 5907 5907 5907 5907 5907 5908 5908 5907 5907 5906 5905 5904 5903 5902 5900 5899 5898 5897 5896 5895 5894
5849 5855 5860 5864 5869 5871 5874 5879 5883 5888 5891 5894 5897 5900 5896 5897 5898 5899 5900 5901 5902 5902 5902 5903 5904 5904 5903 5903 5904 5905 5904 5904 5903 5902 5901 5900 5899 5898 5897 5895 5894 5893 5892 5891
5843 5848 5854 5860 5863 5866 5869 5873 5877 5881 5885 5889 5892 5893 5892 5893 5893 5894 5895 5896 5897 5897 5898 5899 5900 5901 5901 5901 5902 5902 5901 5900 5899 5899 5898 5897 5896 5895 5894 5893 5891 5890 5889 5887
5836 5842 5848 5853 5858 5861 5864 5868 5872 5875 5879 5883 5886 5887 5888 5888 5889 5889 5890 5891 5892 5892 5892 5894 5896 5897 5897 5897 5898 5898 5897 5897 5896 5895 5894 5893 5892 5891 5890 5889 5888 5886 5884 5883
5830 5836 5841 5846 5851 5856 5859 5863 5866 5870 5874 5877 5879 5882 5882 5883 5882 5884 5885 5887 5887 5886 5886 5888 5891 5892 5893 5893 5893 5893 5893 5892 5892 5891 5890 5889 5888 5887 5886 5885 5883 5881 5879 5878
5824 5830 5835 5841 5846 5850 5854 5858 5861 5865 5868 5871 5873 5876 5877 5878 5878 5879 5881 5882 5883 5883 5884 5885 5886 5887 5888 5888 5888 5889 5888 5888 5887 5887 5886 5885 5884 5882 5881 5880 5879 5878 5876 5875
5818 5824 5829 5835 5840 5843 5850 5852 5855 5858 5861 5864 5867 5868 5870 5872 5873 5874 5876 5877 5877 5878 5879 5880 5881 5882 5882 5883 5883 5883 5883 5883 5882 5881 5880 5879 5879 5878 5877 5876 5874 5873 5871 5870
5812 5818 5823 5829 5833 5837 5841 5845 5849 5851 5854 5857 5860 5862 5863 5865 5867 5869 5869 5871 5872 5873 5874 5875 5875 5876 5877 5878 5878 5878 5878 5878 5877 5876 5875 5874 5873 5872 5871 5870 5869 5868 5866 5865
5805 5811 5817 5822 5827 5831 5835 5839 5842 5845 5847 5851 5853 5854 5856 5858 5861 5863 5863 5865 5867 5867 5869 5870 5870 5871 5872 5873 5873 5873 5873 5872 5872 5871 5870 5869 5868 5866 5865 5863 5863 5862 5860 5859
5799 5804 5809 5815 5820 5823 5827 5832 5836 5839 5841 5843 5846 5848 5850 5852 5855 5856 5857 5859 5861 5862 5863 5864 5865 5866 5866 5867 5867 5867 5867 5867 5866 5865 5864 5863 5862 5861 5859 5858 5857 5856 5855 5853
5794 5799 5803 5808 5813 5818 5820 5823 5827 5830 5832 5835 5838 5841 5844 5845 5847 5848 5850 5853 5854 5856 5857 5858 5859 5860 5861 5861 5861 5862 5862 5861 5860 5859 5858 5857 5856 5855 5853 5852 5851 5850 5849 5847
5787 5793 5797 5802 5806 5809 5812 5815 5818 5822 5826 5829 5832 5835 5837 5839 5840 5842 5845 5847 5849 5850 5851 5852 5853 5854 5855 5855 5856 5856 5856 5855 5854 5853 5852 5851 5850 5848 5847 5845 5843 5843 5843 5842
5780 5785 5789 5793 5797 5801 5804 5807 5811 5815 5819 5822 5825 5827 5830 5832 5834 5836 5839 5841 5842 5844 5845 5846 5847 5848 5849 5849 5849 5849 5849 5849 5848 5847 5846 5844 5843 5842 5841 5840 5838 5837 5837 5835
5772 5777 5781 5785 5789 5793 5797 5801 5805 5809 5813 5815 5818 5821 5823 5825 5828 5830 5833 5834 5836 5837 5838 5840 5841 5841 5842 5843 5843 5843 5842 5842 5841 5840 5839 5838 5837 5836 5835 5834 5832 5831 5831 5829
5765 5768 5773 5777 5782 5786 5791 5795 5798 5802 5805 5809 5812 5815 5817 5818 5821 5824 5826 5828 5830 5831 5832 5833 5834 5835 5836 5836 5836 5836 5836 5835 5835 5834 5832 5831 5830 5829 5828 5827 5826 5825 5824 5823
Wind_Speed
21 20 18 16 14 12 12 11 11 13 11 9 9 9 8 8 10 10 10 9 9 9 10 10 10 10 11 11 11 11 11 11 11 10 9 8 7 7 8 8 7 5 5 5
24 22 20 19 17 16 15 14 14 14 13 10 10 10 9 9 10 10 10 9 8 8 9 9 9 10 10 10 11 10 10 10 10 10 9 8 8 7 8 8 7 6 6 6
25 22 21 21 20 19 17 16 16 14 14 12 11 11 12 11 11 11 11 10 8 8 8 8 9 9 9 10 10 9 9 9 9 10 10 9 8 8 7 7 7 7 7 7
27 25 24 24 23 21 19 18 17 16 15 13 12 13 14 14 13 12 11 10 9 8 8 8 8 9 9 10 9 9 9 10 10 10 9 9 9 8 7 7 7 7 8 8
27 26 26 25 24 22 21 20 19 18 17 15 14 15 15 15 15 13 12 11 10 9 8 8 8 8 9 9 9 10 10 10 10 10 10 9 9 8 8 7 7 7 8 8
28 27 27 26 24 23 22 21 20 19 18 19 17 15 17 16 15 14 14 12 11 10 9 8 8 8 9 9 10 10 10 9 9 10 10 9 9 8 8 7 7 7 7 8
30 28 28 27 26 25 23 22 20 19 20 20 17 17 19 18 15 14 14 14 13 12 11 10 10 9 9 10 10 10 10 10 10 10 10 10 9 9 8 9 9 9 8 9
29 29 29 28 27 26 25 23 22 20 18 17 17 19 20 19 17 16 16 15 14 14 13 12 11 11 10 10 10 11 10 10 10 10 11 11 10 9 9 9 9 10 9 10
24 25 28 29 28 27 26 25 23 21 19 18 17 19 19 21 19 17 16 17 15 15 15 14 13 12 12 11 11 11 11 11 11 11 12 12 11 11 10 10 10 11 11 11
25 25 26 28 28 29 27 24 23 24 22 21 19 19 19 21 20 18 17 17 15 15 16 16 14 14 12 12 12 12 12 11 12 12 13 13 13 12 12 11 11 11 11 12
27 25 24 27 29 27 28 27 26 25 24 20 18 18 18 21 20 19 18 18 18 17 17 16 16 15 14 13 13 13 13 13 13 14 14 15 14 13 13 12 12 12 12 13
30 26 25 26 26 26 27 28 27 27 26 24 21 19 20 19 18 18 17 19 19 17 18 17 17 17 16 14 14 14 14 14 15 15 15 15 14 14 14 13 13 13 13 14
31 30 27 24 25 26 27 28 28 28 27 25 22 21 22 19 19 20 19 20 21 20 20 19 19 18 16 15 16 16 16 16 16 16 16 16 15 15 15 14 15 15 15 15
31 32 30 25 24 24 26 27 27 27 27 25 23 23 23 22 21 21 22 22 22 22 22 22 20 19 19 18 17 17 17 17 17 17 17 17 17 16 16 16 17 17 18 18
33 32 32 28 23 23 23 25 25 27 27 26 24 24 24 22 22 23 23 22 23 23 23 22 21 20 20 20 19 19 19 18 18 19 19 18 18 18 18 18 18 19 19 18
34 34 32 31 26 23 24 24 24 25 26 27 26 24 23 24 25 24 24 23 23 22 21 21 21 21 21 20 20 20 20 20 19 19 20 20 19 19 19 20 20 19 19 19
33 34 33 31 28 26 26 26 27 27 27 27 27 26 27 27 27 26 25 24 24 23 23 23 23 22 22 22 21 22 22 22 21 21 21 21 20 20 20 20 21 21 20 19
34 34 33 30 29 30 29 26 26 26 27 28 28 29 29 28 28 28 27 27 26 25 24 23 23 24 23 23 23 23 23 23 23 23 23 23 22 22 22 22 22 22 22 21
33 33 33 31 29 29 29 27 26 27 28 29 29 29 29 29 28 28 29 28 26 25 25 24 24 24 24 24 24 24 24 24 24 23 23 23 23 23 24 24 23 23 22 22
33 33 33 31 29 29 29 28 26 28 30 29 30 31 30 28 28 28 28 28 27 26 26 25 25 25 25 25 25 25 25 24 24 24 24 25 25 25 25 25 24 23 23 23
32 33 33 32 30 29 29 28 27 29 30 30 30 30 30 30 29 28 28 27 27 27 26 26 25 25 25 25 25 25 25 25 25 25 26 26 27 27 27 26 24 24 24 24
32 32 33 32 31 31 31 30 31 30 28 29 31 30 29 29 28 27 26 26 26 26 26 26 25 25 25 25 25 25 25 25 26 27 27 27 27 27 27 27 25 24 25 24
31 31 31 32 33 32 31 31 31 32 30 29 30 30 29 29 28 28 27 27 26 27 27 26 26 26 26 26 26 26 26 26 27 27 27 27 27 26 26 26 25 24 24 24
33 32 33 34 34 34 32 31 30 29 29 29 29 29 29 28 28 28 27 27 26 27 27 27 26 26 26 27 27 27 27 27 27 26 26 26 26 25 25 25 24 22 23 24
31 32 34 35 34 34 34 30 28 28 28 29 29 27 26 26 28 28 27 27 26 25 26 26 26 26 26 26 26 27 26 25 25 25 26 26 26 26 26 25 23 23 23 24
32 33 35 36 35 35 33 32 30 29 29 29 29 28 27 27 27 27 27 26 26 26 25 26 26 26 26 26 26 25 25 25 25 26 26 26 26 26 26 25 25 24 25 25
Wind_Direction
226 225 221 221 224 217 217 222 228 238 250 256 266 278 287 306 313 320 327 337 351 0 6 9 14 15 16 18 17 17 18 20 24 32 36 34 37 40 36 33 30 29 26 19
227 227 223 220 222 221 218 221 229 237 245 246 257 269 276 287 297 304 311 320 333 348 358 3 7 8 8 10 10 11 12 14 16 19 25 27 26 27 27 26 27 23 20 14
228 228 228 222 220 222 220 222 224 235 247 251 257 264 261 270 285 292 301 308 316 330 345 353 360 2 3 3 3 1 5 7 10 12 12 16 17 15 16 17 16 14 14 11
227 225 225 222 221 221 224 226 225 229 239 246 254 258 265 272 283 288 294 301 305 317 330 341 346 352 354 356 355 352 359 0 5 5 6 8 9 9 10 11 9 11 15 14
225 223 225 224 222 223 225 228 230 230 238 241 248 256 266 266 273 282 287 293 297 304 314 325 331 336 342 348 350 350 355 357 359 1 2 1 360 360 360 359 359 2 3 4
223 225 226 226 223 222 224 228 230 231 235 242 240 243 256 256 266 273 280 286 291 294 302 312 320 327 332 338 344 346 348 350 354 357 358 356 355 351 350 352 350 345 344 347
223 226 227 226 224 222 219 223 228 234 238 241 241 242 251 256 258 261 271 274 278 283 289 297 307 316 322 327 333 338 340 342 346 350 353 352 347 343 340 341 339 338 336 334
227 226 229 226 224 223 220 221 222 228 239 246 239 241 247 258 264 260 262 263 265 275 281 291 296 303 309 314 322 328 332 334 338 339 340 341 338 337 334 330 330 330 326 325
224 229 232 231 225 223 224 223 222 229 234 242 242 243 252 257 260 255 257 259 255 264 274 282 288 293 298 304 309 317 322 324 325 327 329 330 329 327 325 323 325 324 323 322
216 221 230 234 227 222 222 226 220 222 229 237 242 246 247 255 261 261 256 258 260 262 266 275 281 285 289 294 300 306 310 312 316 317 319 322 321 319 318 317 317 320 321 318
214 220 225 233 229 223 221 221 221 223 226 232 242 246 248 253 265 271 269 264 263 263 265 268 275 280 283 287 291 297 301 304 307 309 310 314 315 312 312 311 312 311 312 312
213 217 220 231 232 225 223 223 221 222 225 227 232 242 250 248 259 266 261 259 257 256 262 265 268 272 275 279 285 290 294 298 301 303 304 308 311 307 305 304 305 307 308 308
214 214 213 220 230 228 223 224 222 223 226 229 233 243 251 253 254 259 258 257 257 256 256 260 265 272 276 277 285 289 291 293 295 298 298 301 303 303 302 301 301 303 305 304
216 215 211 214 223 228 227 223 221 221 224 229 232 238 248 253 254 256 258 258 260 258 256 259 264 267 271 276 280 285 290 293 295 296 297 298 299 300 301 302 301 300 300 299
217 216 214 210 217 227 229 228 224 223 223 226 231 237 245 250 254 256 259 260 262 260 257 259 263 265 268 272 277 282 288 291 292 295 296 296 297 297 298 299 299 298 298 295
218 217 217 213 213 224 227 226 224 226 225 228 230 234 239 250 252 255 258 259 263 261 259 262 263 265 267 270 274 279 284 287 290 292 295 293 294 296 297 298 297 298 295 289
219 220 218 216 215 221 227 228 228 228 228 229 233 235 238 244 249 257 260 259 260 260 261 263 262 263 265 268 272 276 281 284 286 290 292 292 293 293 296 297 296 296 294 291
220 220 221 219 219 224 225 228 230 230 229 230 232 237 239 243 248 251 257 260 260 262 262 262 261 261 263 268 272 276 281 285 287 289 290 290 291 292 292 293 293 292 291 291
222 220 219 219 223 229 229 226 228 229 229 230 232 237 241 244 245 250 256 257 259 261 261 260 261 263 266 269 273 277 280 282 285 287 290 291 290 290 290 289 288 289 288 289
223 221 219 219 221 226 229 229 230 233 234 233 233 237 240 242 246 250 253 254 256 258 259 260 261 263 266 269 272 275 278 281 284 286 288 289 290 290 289 289 287 288 288 287
223 222 220 218 221 227 228 228 230 233 236 235 236 238 240 244 246 249 252 253 254 257 258 259 260 263 266 269 271 274 276 279 283 285 288 289 289 290 289 289 287 287 289 288
225 224 223 219 220 226 229 230 229 232 235 236 236 238 241 245 247 248 252 254 254 256 258 260 261 263 266 269 272 274 277 280 283 285 287 287 287 288 287 288 286 286 288 288
223 222 223 224 225 226 230 231 233 234 235 237 237 239 242 244 245 249 253 255 255 256 257 260 261 262 265 269 272 274 277 281 283 285 286 286 287 287 287 286 288 287 286 289
222 221 221 224 225 228 231 233 234 235 236 237 239 241 242 244 247 250 252 254 255 256 257 259 261 262 265 269 272 275 277 279 280 282 284 286 286 288 289 288 288 290 289 290
222 219 221 224 225 227 231 234 236 235 236 238 238 238 241 244 247 249 251 253 255 256 256 258 260 262 265 268 271 274 276 277 279 281 283 285 285 286 287 286 288 288 288 290
223 221 221 224 226 228 231 234 237 236 235 236 238 240 241 244 248 249 250 252 254 255 257 258 259 261 265 268 271 272 274 276 280 282 284 285 286 287 286 285 286 287 288 290